Find Kosmos-2475

NORAD ID: 37867 Int'l Des: 2011-064 Owner: KVR/IACG Country: RU Constellation: GLONASS operational
MEOCIRCULAR

Live-Position

3D-Globus wird geladen...

Über Kosmos-2475

Beschreibung wird geladen...

Nächste Überflüge

Passes for default location (London). Set your location on the main map for personalized predictions.

Höhenverlauf

Loading altitude history...

Zweizeiliger Elementsatz

1 37867U 11064A 26104.41301580 .00000040 00000-0 00000+0 0 9991
2 37867 65.2348 75.0231 0024657 242.2669 316.7492 2.13103930112406
Epoch: 14. Apr. 2026 • Age: 20 hours

Aktueller Status

Höhe 19181.6 km
Geschwindigkeit 3.95 km/s
Subsatellitenpunkt 58.97°N, 82.99°W
Startdatum 4. Nov. 2011
Alter 14.4 years
Typ other

Technische Details

Klassifizierung Payload
Masse 1450.00 kg
Trockenmasse 1200.00 kg
Gesamtmasse 1450.00 kg
Länge 4.00 m
Durchmesser 1.50 m
Spannweite 7.80 m
Form Cyl + Ant + 2 Pan
Hersteller RESH
Bus-Typ Uragan
Phasenstatus In Orbit
Besitzer/Staat KVR/IACG/RU

Most Searched